FW8431 Weather Reports


Display with metric or nautical units.
time (UTC)temp
F
wind
direction
speed
MPH
gust
MPH
rain 1hr
in
rain 24hr
in
rain mn
in
humidity
%
barometer
mb
20260902024556 68 0 0.0 0.0 0.00 0.01 0.01 90 1024.8
20260902023054 68 313 0.0 2.0 0.00 0.01 0.01 89 1024.7
20260902021603 68 0 0.0 2.0 0.00 0.01 0.01 89 1024.9
20260902014602 69 313 0.0 1.0 0.00 0.01 0.01 87 1024.7
20260902013058 69 0 0.0 1.0 0.00 0.01 0.01 86 1024.4
20260902011557 70 0 0.0 0.0 0.00 0.01 0.01 86 1024.3
20260902010057 70 0 0.0 0.0 0.00 0.01 0.01 86 1024.3
20260902004558 71 0 0.0 1.0 0.00 0.01 0.01 85 1024.1
20260902003055 72 313 0.0 1.0 0.00 0.01 0.01 85 1024.0
20260902001602 73 0 0.0 2.0 0.00 0.01 0.01 85 1023.9
20260902000058 74 313 1.0 2.0 0.00 0.01 0.01 83 1023.9
20260901234610 76 313 0.0 3.0 0.00 0.01 0.01 81 1023.8
20260901233101 77 0 0.0 2.0 0.00 0.01 0.01 77 1023.9
20260901231600 79 0 0.0 2.0 0.00 0.01 0.01 73 1024.0
20260901230058 80 313 0.0 3.0 0.00 0.01 0.01 70 1024.1
20260901224558 81 0 1.0 4.0 0.00 0.01 0.01 67 1023.9
20260901223051 82 0 0.0 4.0 0.00 0.01 0.01 67 1024.1
20260901221607 83 0 0.0 8.0 0.00 0.01 0.01 65 1023.9
20260901220115 84 0 0.0 4.0 0.00 0.01 0.01 66 1023.9
20260901214554 83 0 1.0 7.0 0.00 0.01 0.01 64 1024.1
20260901213113 83 121 1.0 8.0 0.00 0.01 0.01 64 1024.2
20260901211557 84 124 0.0 7.0 0.00 0.01 0.01 63 1024.1
20260901210056 84 119 2.0 6.0 0.00 0.01 0.01 60 1024.1
20260901204555 85 350 2.0 5.0 0.00 0.01 0.01 62 1024.2
20260901203053 86 67 1.0 4.0 0.00 0.01 0.01 59 1024.2
20260901201602 85 0 2.0 6.0 0.00 0.01 0.01 60 1024.2
20260901200054 84 13 2.0 5.0 0.00 0.01 0.01 63 1024.4
20260901194602 83 15 2.0 5.0 0.00 0.01 0.01 62 1024.4
20260901193102 84 0 0.0 5.0 0.00 0.01 0.01 68 1024.4
20260901191600 84 85 3.0 8.0 0.00 0.01 0.01 64 1024.6
20260901190056 84 0 2.0 7.0 0.00 0.01 0.01 63 1024.9
20260901184559 83 0 2.0 6.0 0.00 0.01 0.01 64 1024.9
20260901183059 83 336 2.0 7.0 0.00 0.01 0.01 64 1025.1
20260901181556 83 116 1.0 7.0 0.00 0.01 0.01 71 1025.0
20260901180054 82 161 1.0 5.0 0.00 0.01 0.01 70 1025.0
20260901174601 80 98 2.0 7.0 0.00 0.01 0.01 69 1025.0
20260901173059 81 149 1.0 6.0 0.00 0.01 0.01 71 1025.2
20260901171605 81 114 0.0 6.0 0.00 0.01 0.01 74 1025.3
20260901170119 80 86 5.0 12.0 0.00 0.01 0.01 73 1025.6
20260901164609 80 142 4.0 8.0 0.00 0.01 0.01 75 1025.8
20260901163105 79 150 3.0 7.0 0.00 0.01 0.01 78 1026.0
20260901161603 79 237 2.0 7.0 0.00 0.01 0.01 77 1026.0
20260901154607 78 234 2.0 5.0 0.00 0.01 0.01 78 1026.3
20260901153118 76 239 2.0 5.0 0.00 0.01 0.01 82 1026.3
20260901151606 75 239 2.0 4.0 0.00 0.01 0.01 85 1026.4
20260901150109 74 240 2.0 5.0 0.00 0.01 0.01 86 1026.4
20260901144559 73 239 1.0 5.0 0.00 0.01 0.01 88 1026.4
20260901143106 71 246 0.0 4.0 0.00 0.01 0.01 95 1026.3
20260901141559 69 0 1.0 4.0 0.00 0.01 0.01 97 1026.5
20260901140109 68 0 0.0 3.0 0.00 0.01 0.01 98 1026.4
20260901134557 67 0 0.0 2.0 0.00 0.01 0.01 98 1026.4
20260901133105 66 246 0.0 0.0 0.00 0.01 0.01 98 1026.4
20260901131602 65 0 0.0 0.0 0.00 0.01 0.01 98 1026.5
20260901130058 64 0 0.0 1.0 0.00 0.01 0.01 98 1026.5
20260901124605 64 246 0.0 2.0 0.00 0.01 0.01 98 1026.3
20260901123055 63 0 0.0 0.0 0.00 0.01 0.01 98 1026.4
20260901121606 63 0 0.0 0.0 0.00 0.01 0.01 98 1026.3
20260901120116 63 0 0.0 0.0 0.01 0.01 0.01 98 1026.2
20260901114601 62 0 0.0 0.0 0.01 0.01 0.01 98 1025.9
20260901113118 62 0 0.0 0.0 0.01 0.01 0.01 98 1025.7
20260901111558 63 0 0.0 0.0 0.01 0.01 0.01 97 1025.6
20260901110108 63 0 0.0 0.0 0.00 0.00 0.00 97 1025.3
20260901104603 63 0 0.0 0.0 0.00 0.00 0.00 98 1025.1
20260901103101 63 0 0.0 0.0 0.00 0.00 0.00 97 1025.1
20260901101608 63 0 0.0 0.0 0.00 0.00 0.00 98 1025.2
20260901094559 63 0 0.0 0.0 0.00 0.00 0.00 98 1024.8
20260901093103 63 0 0.0 0.0 0.00 0.00 0.00 98 1024.8
20260901091555 63 0 0.0 0.0 0.00 0.00 0.00 97 1024.9
20260901090056 63 0 0.0 0.0 0.00 0.00 0.00 97 1024.9
20260901084602 63 0 0.0 0.0 0.00 0.00 0.00 97 1025.1
20260901083059 64 0 0.0 0.0 0.00 0.00 0.00 97 1024.9
20260901081556 64 0 0.0 0.0 0.00 0.00 0.00 97 1025.3
20260901080059 65 0 0.0 0.0 0.00 0.00 0.00 97 1025.3
20260901074559 65 0 0.0 0.0 0.00 0.00 0.00 97 1025.3
20260901073102 65 0 0.0 0.0 0.00 0.00 0.00 97 1025.3
20260901071556 65 0 0.0 0.0 0.00 0.00 0.00 97 1025.5
20260901070058 65 0 0.0 0.0 0.00 0.00 0.00 97 1025.5
20260901064600 65 0 0.0 0.0 0.00 0.00 0.00 97 1025.5
20260901063113 65 0 0.0 0.0 0.00 0.00 0.00 97 1025.4
20260901061602 65 0 0.0 0.0 0.00 0.00 0.00 97 1025.6
20260901060059 65 0 0.0 0.0 0.00 0.00 0.00 97 1025.8
20260901054553 65 0 0.0 0.0 0.00 0.00 0.00 96 1025.7
20260901053101 65 0 0.0 0.0 0.00 0.00 0.00 96 1025.8
20260901051615 65 0 0.0 0.0 0.00 0.00 0.00 96 1025.8
20260901050104 65 0 0.0 0.0 0.00 0.00 0.00 96 1025.9
20260901044602 66 0 0.0 0.0 0.00 0.00 0.00 96 1025.9
20260901043058 66 0 0.0 0.0 0.00 0.00 0.00 96 1025.5
20260901041559 66 0 0.0 0.0 0.00 0.00 0.00 96 1025.5
20260901040054 66 0 0.0 0.0 0.00 0.00 0.00 96 1025.5
20260901034607 66 0 0.0 0.0 0.00 0.00 0.00 95 1025.3
20260901033111 67 0 0.0 0.0 0.00 0.00 0.00 95 1025.6
20260901031555 66 0 0.0 1.0 0.00 0.00 0.00 94 1025.6
20260901030051 67 246 0.0 1.0 0.00 0.00 0.00 94 1025.3